Location: Mapua
(41.2500°S, 173.1000°E)
Time: 18:25:40
(UTC+12:00)

ISS - Pass Details

Date: 30 March 2019
Orbit: 408 x 410 km, 51.6° (Epoch: 26 April)

Event Time Altitude Azimuth Distance (km) Brightness Sun altitude
Exits shadow 05:39:42 34° 56° (NE) 704 -2.4 -23.2°
Drops below altitude 10° 05:42:33 10° 111° (ESE) 1,505 0.2 -22.7°
Sets 05:44:45 0° 119° (ESE) 2,376 1.4 -22.3°
